Location: *
(40.9167°N, 9.5000°E)
Time: 19:46:07
(UTC+00:00)

SL-4 R/B - Pass Details

Date: 09 April 2020
Orbit: 428 x 666 km, 51.6° (Epoch: 31 May)

Event Time Altitude Azimuth Distance (km) Brightness Sun altitude
Rises 19:02:05 0° 275° (W) 2,398 6.8 -12.8°
Reaches altitude 10° 19:04:36 10° 293° (WNW) 1,524 5.8 -13.2°
Maximum altitude 19:07:10 20° 343° (NNW) 1,067 4.0 -13.7°
Drops below altitude 10° 19:09:46 10° 32° (NNE) 1,538 4.2 -14.1°
Enters shadow 19:11:29 - 46° (NE) 2,120 4.8 -14.4°
